Date String (YYYY-MM-DD hh:mm:ss) UTC,Instrument flags,absolute air pressure of the measurement (hPa),sample flow rate (lpm),inlet stack bypass flow (lpm),air temperature of the measurement (°C),ambient temperature measured by the external sensor (°C),aerosol sample conditioner tube jacket temperature (°C),OPC LED temperature (°C),internal box temperature (°C),relative humidity of the measurement (%),span deviation,mass concentration of particles derived from Lorenz-Mie calculation of OPC scattering (μg/m³),mass concentration of particles derived from Lorenz-Mie calculation of OPC scattering (μg/m³),mass concentration of particles derived from Lorenz-Mie calculation of OPC scattering (μg/m³)
DateTimeUTC,F1_M11,P_M11,Q1_M11,Q2_M11,T1_M11,T2_M11,T3_M11,T4_M11,T5_M11,U1_M11,ZSPAN_M11,X0_M11,X2_M11,X1_M11
2024-04-04 00:00:00,SystemResetWarning,0827.5,5.02,000.00,025.2,022.4,000.0,033.8,026.0,011.1,0000.0,0006.25,0002.49,0001.64
2024-04-04 00:01:00,SystemResetWarning,0827.6,5.00,000.00,025.0,022.4,000.0,033.8,025.9,011.2,0000.0,0006.28,0002.48,0001.65
2024-04-04 00:02:00,SystemResetWarning,0827.6,4.99,000.00,024.9,022.8,000.0,033.6,026.1,011.0,0000.0,0006.38,0002.50,0001.66
2024-04-04 00:03:00,SystemResetWarning,0827.7,5.00,000.00,024.9,023.1,000.0,033.6,026.4,011.4,0000.0,0006.36,0002.50,0001.68
2024-04-04 00:04:00,SystemResetWarning,0827.7,5.00,000.00,024.9,023.5,000.0,033.5,026.6,011.1,0000.0,0006.29,0002.47,0001.69
2024-04-04 00:05:00,SystemResetWarning,0827.7,5.00,000.00,025.0,023.8,000.0,033.5,026.7,011.1,0000.0,0006.17,0002.48,0001.69
2024-04-04 00:06:00,SystemResetWarning,0827.6,5.00,000.00,025.0,024.0,000.0,033.5,026.8,011.5,0000.0,0005.27,0002.44,0001.69
2024-04-04 00:07:00,SystemResetWarning,0827.7,5.00,000.00,025.1,024.2,000.0,033.5,026.9,011.4,0000.0,0004.14,0002.40,0001.69
2024-04-04 00:08:00,SystemResetWarning,0827.7,5.00,000.00,025.1,024.4,000.0,033.5,027.0,011.0,0000.0,0004.18,0002.39,0001.69
2024-04-04 00:09:00,SystemResetWarning,0827.7,5.00,000.00,025.2,024.5,000.0,033.5,027.1,011.3,0000.0,0004.17,0002.40,0001.69
2024-04-04 00:10:00,SystemResetWarning,0827.7,5.00,000.00,025.2,024.6,000.0,033.5,027.1,011.6,0000.0,0004.16,0002.42,0001.70
2024-04-04 00:11:00,SystemResetWarning,0827.7,5.00,000.00,025.3,024.7,000.0,033.5,027.2,011.4,0000.0,0004.27,0002.43,0001.70
2024-04-04 00:12:00,SystemResetWarning,0827.7,4.99,000.00,025.4,024.8,000.0,033.6,027.3,011.5,0000.0,0004.36,0002.43,0001.70
2024-04-04 00:13:00,SystemResetWarning,0827.7,5.00,000.00,025.4,024.9,000.0,033.6,027.3,011.2,0000.0,0004.18,0002.39,0001.69
2024-04-04 00:14:00,SystemResetWarning,0827.7,5.00,000.00,025.5,025.0,000.0,033.6,027.4,011.1,0000.0,0004.12,0002.35,0001.68
2024-04-04 00:15:00,SystemResetWarning,0827.7,4.99,000.00,025.5,025.0,000.0,033.7,027.4,011.2,0000.0,0004.16,0002.36,0001.69
2024-04-04 00:16:00,SystemResetWarning,0827.7,5.00,000.00,025.6,025.1,000.0,033.7,027.5,011.3,0000.0,0004.10,0002.33,0001.70
2024-04-04 00:17:00,SystemResetWarning,0827.7,5.00,000.00,025.6,025.1,000.0,033.7,027.4,011.5,0000.0,0004.12,0002.34,0001.72
2024-04-04 00:18:00,SystemResetWarning,0827.7,4.99,000.00,025.4,023.4,000.0,033.8,026.6,011.3,0000.0,0004.06,0002.33,0001.72
2024-04-04 00:19:00,SystemResetWarning,0827.7,5.02,000.00,025.1,022.2,000.0,033.8,025.9,011.5,0000.0,0003.94,0002.36,0001.72
2024-04-04 00:20:00,SystemResetWarning,0827.7,5.00,000.00,024.9,022.4,000.0,033.7,025.9,011.9,0000.0,0003.92,0002.34,0001.72
2024-04-04 00:21:00,SystemResetWarning,0827.7,4.99,000.00,024.9,022.8,000.0,033.6,026.2,011.6,0000.0,0003.82,0002.32,0001.72
2024-04-04 00:22:00,SystemResetWarning,0827.7,5.00,000.00,024.9,023.1,000.0,033.5,026.4,011.8,0000.0,0003.47,0002.27,0001.71
2024-04-04 00:23:00,SystemResetWarning,0827.7,5.01,000.00,024.9,023.5,000.0,033.5,026.6,011.6,0000.0,0003.26,0002.23,0001.71
2024-04-04 00:24:00,SystemResetWarning,0827.7,5.01,000.00,025.0,023.8,000.0,033.5,026.7,011.4,0000.0,0003.25,0002.24,0001.72
2024-04-04 00:25:00,SystemResetWarning,0827.7,4.99,000.00,025.0,024.0,000.0,033.4,026.8,011.3,0000.0,0003.33,0002.27,0001.73
2024-04-04 00:26:00,SystemResetWarning,0827.7,5.00,000.00,025.0,024.2,000.0,033.4,026.9,011.6,0000.0,0003.45,0002.31,0001.73
2024-04-04 00:27:00,SystemResetWarning,0827.7,5.00,000.00,025.1,024.3,000.0,033.5,026.9,011.2,0000.0,0003.56,0002.36,0001.73
2024-04-04 00:28:00,SystemResetWarning,0827.7,5.00,000.00,025.2,024.5,000.0,033.5,027.0,011.3,0000.0,0003.65,0002.37,0001.71
2024-04-04 00:29:00,SystemResetWarning,0827.7,5.00,000.00,025.2,024.6,000.0,033.5,027.1,011.3,0000.0,0003.85,0002.41,0001.71
2024-04-04 00:30:00,SystemResetWarning,0827.7,5.01,000.00,025.3,024.7,000.0,033.5,027.2,011.2,0000.0,0003.92,0002.44,0001.72
2024-04-04 00:31:00,SystemResetWarning,0827.7,5.00,000.00,025.3,024.8,000.0,033.5,027.2,011.3,0000.0,0004.27,0002.49,0001.71
2024-04-04 00:32:00,SystemResetWarning,0827.7,5.00,000.00,025.4,024.9,000.0,033.6,027.3,011.1,0000.0,0004.67,0002.49,0001.70
2024-04-04 00:33:00,SystemResetWarning,0827.7,5.00,000.00,025.4,024.9,000.0,033.6,027.3,011.3,0000.0,0004.69,0002.48,0001.70
2024-04-04 00:34:00,SystemResetWarning,0827.7,5.00,000.00,025.5,025.0,000.0,033.6,027.4,011.3,0000.0,0004.77,0002.50,0001.69
2024-04-04 00:35:00,SystemResetWarning,0827.7,5.00,000.00,025.5,025.1,000.0,033.7,027.4,011.0,0000.0,0004.77,0002.51,0001.68
2024-04-04 00:36:00,SystemResetWarning,0827.7,4.99,000.00,025.6,025.1,000.0,033.7,027.5,010.8,0000.0,0004.67,0002.46,0001.66
2024-04-04 00:37:00,SystemResetWarning,0827.7,5.00,000.00,025.6,025.2,000.0,033.7,027.5,010.6,0000.0,0004.82,0002.40,0001.64
2024-04-04 00:38:00,SystemResetWarning,0827.7,5.00,000.00,025.6,025.2,000.0,033.8,027.5,011.0,0000.0,0004.78,0002.35,0001.63
2024-04-04 00:39:00,SystemResetWarning,0827.7,4.98,000.00,025.6,024.2,000.0,033.8,027.0,011.2,0000.0,0004.80,0002.36,0001.64
2024-04-04 00:40:00,SystemResetWarning,0827.7,5.02,000.00,025.2,022.3,000.0,033.9,026.0,011.3,0000.0,0004.57,0002.28,0001.62
2024-04-04 00:41:00,SystemResetWarning,0827.7,5.01,000.00,024.9,022.2,000.0,033.8,025.9,011.6,0000.0,0004.45,0002.22,0001.61
2024-04-04 00:42:00,SystemResetWarning,0827.7,5.00,000.00,024.9,022.6,000.0,033.7,026.1,011.2,0000.0,0004.26,0002.20,0001.61
2024-04-04 00:43:00,SystemResetWarning,0827.7,5.00,000.00,024.9,023.0,000.0,033.6,026.3,011.7,0000.0,0004.05,0002.22,0001.61
2024-04-04 00:44:00,SystemResetWarning,0827.7,5.01,000.00,024.9,023.3,000.0,033.5,026.5,011.5,0000.0,0004.20,0002.27,0001.59
2024-04-04 00:45:00,SystemResetWarning,0827.7,5.01,000.00,024.9,023.6,000.0,033.5,026.6,011.7,0000.0,0004.15,0002.24,0001.59
2024-04-04 00:46:00,SystemResetWarning,0827.7,5.00,000.00,025.0,023.9,000.0,033.5,026.7,011.5,0000.0,0004.18,0002.19,0001.58
2024-04-04 00:47:00,SystemResetWarning,0827.7,5.00,000.00,025.0,024.1,000.0,033.5,026.8,011.1,0000.0,0004.28,0002.19,0001.59
2024-04-04 00:48:00,SystemResetWarning,0827.7,5.00,000.00,025.1,024.2,000.0,033.5,026.9,011.1,0000.0,0004.48,0002.20,0001.59
2024-04-04 00:49:00,SystemResetWarning,0827.7,4.99,000.00,025.1,024.4,000.0,033.5,027.0,011.5,0000.0,0004.41,0002.19,0001.60
2024-04-04 00:50:00,SystemResetWarning,0827.7,4.99,000.00,025.1,024.5,000.0,033.5,027.0,011.3,0000.0,0004.50,0002.19,0001.59
2024-04-04 00:51:00,SystemResetWarning,0827.7,5.01,000.00,025.2,024.6,000.0,033.5,027.1,011.3,0000.0,0004.66,0002.25,0001.60
2024-04-04 00:52:00,SystemResetWarning,0827.7,5.02,000.00,025.3,024.7,000.0,033.5,027.2,011.2,0000.0,0004.63,0002.25,0001.61
2024-04-04 00:53:00,SystemResetWarning,0827.7,4.99,000.00,025.3,024.8,000.0,033.6,027.2,011.1,0000.0,0004.58,0002.23,0001.61
2024-04-04 00:54:00,SystemResetWarning,0827.7,4.99,000.00,025.3,024.9,000.0,033.6,027.3,011.2,0000.0,0004.42,0002.23,0001.62
2024-04-04 00:55:00,SystemResetWarning,0827.7,5.00,000.00,025.4,024.9,000.0,033.6,027.3,011.2,0000.0,0004.40,0002.20,0001.62
2024-04-04 00:56:00,SystemResetWarning,0827.7,5.00,000.00,025.4,025.0,000.0,033.6,027.3,011.3,0000.0,0005.01,0002.29,0001.62
2024-04-04 00:57:00,SystemResetWarning,0827.7,5.00,000.00,025.5,025.0,000.0,033.7,027.4,011.4,0000.0,0005.31,0002.34,0001.63
2024-04-04 00:58:00,SystemResetWarning,0827.7,5.01,000.00,025.5,025.1,000.0,033.7,027.4,011.1,0000.0,0005.42,0002.40,0001.64
2024-04-04 00:59:00,SystemResetWarning,0827.7,5.01,000.00,025.6,025.1,000.0,033.7,027.5,011.1,0000.0,0005.31,0002.45,0001.66
